Weather History for Dodge City, KS

Change the Weather History Date:

Friday, November 29, 2013

  Actual Average Record
Temperature  
Mean Temperature 42 °F -  
Max Temperature 59 °F 47 °F 76 °F (1901)
Min Temperature 24 °F 25 °F -3 °F (1880)
Degree Days  
Heating Degree Days 24    
Moisture  
Dew Point 27 °F    
Average Humidity 66    
Maximum Humidity 88    
Minimum Humidity 25    
Precipitation  
Precipitation 0.00 in - - ()
Sea Level Pressure  
Sea Level Pressure 30.24 in    
Wind  
Wind Speed 10 mph (South)    
Max Wind Speed 23 mph    
Max Gust Speed 31 mph    
Visibility 9 miles    
Events      
Averages and records for this station are not official NWS values.
T = Trace of Precipitation, MM = Missing Value Source: NWS Daily Summary

Daily Weather History Graph

Daily Weather History Graph

Search for Another Location

Airport:

Trip Planner

Search our weather history database for the weather conditions in past years. The results will help you decide how hot, cold, wet, or windy it might be!

Date:

Astronomy

Nov. 29, 2013 Rise Set
Actual Time 7:34 AM CST 5:21 PM CST
Civil Twilight 7:05 AM CST 5:50 PM CST
Nautical Twilight 6:33 AM CST 6:22 PM CST
Astronomical Twilight 6:01 AM CST 6:54 PM CST
Moon 3:45 AM CST (11/29) 3:04 PM CST (11/29)
Length of Visible Light 10h 44m
Length of Day
9h 46m
Waning Crescent, 14% of the Moon is Illuminated
Nov 29
Waning Crescent
Dec 2
New
Dec 9
First Quarter
Dec 17
Full
Dec 25
Last Quarter

Hourly Weather History & Observations

Time (CST) Temp. Windchill Dew Point Humidity Pressure Visibility Wind Dir Wind Speed Gust Speed Precip Events Conditions
12:52 AM 23.0 °F 13.9 °F 19.0 °F 85% 30.40 in 9.0 mi East 8.1 mph - N/A   Clear
1:52 AM 23.0 °F 14.7 °F 18.0 °F 81% 30.38 in 9.0 mi ESE 6.9 mph - N/A   Clear
2:52 AM 21.9 °F 14.5 °F 18.0 °F 85% 30.37 in 8.0 mi SE 5.8 mph - N/A   Clear
3:52 AM 21.9 °F 14.5 °F 18.0 °F 85% 30.36 in 8.0 mi SSE 5.8 mph - N/A   Clear
4:52 AM 24.1 °F 13.7 °F 19.9 °F 84% 30.34 in 8.0 mi SSE 10.4 mph - N/A   Clear
5:52 AM 24.1 °F 14.4 °F 19.9 °F 84% 30.34 in 8.0 mi South 9.2 mph - N/A   Clear
6:52 AM 26.1 °F 16.8 °F 21.9 °F 84% 30.35 in 8.0 mi South 9.2 mph - N/A   Clear
7:52 AM 26.1 °F 18.4 °F 23.0 °F 88% 30.34 in 7.0 mi SSE 6.9 mph - N/A   Clear
8:52 AM 32.0 °F 22.5 °F 26.1 °F 79% 30.34 in 8.0 mi South 12.7 mph - N/A   Clear
9:52 AM 37.0 °F 28.1 °F 28.9 °F 73% 30.31 in 10.0 mi South 15.0 mph - N/A   Clear
10:52 AM 43.0 °F 35.4 °F 32.0 °F 65% 30.29 in 10.0 mi South 16.1 mph - N/A   Clear
11:52 AM 48.0 °F - 32.0 °F 54% 30.24 in 10.0 mi South 18.4 mph 26.5 mph N/A   Clear
12:52 PM 48.9 °F - 32.0 °F 52% 30.20 in 10.0 mi South 21.9 mph - N/A   Clear
1:52 PM 52.0 °F - 33.1 °F 49% 30.15 in 10.0 mi South 23.0 mph 31.1 mph N/A   Clear
2:52 PM 57.9 °F - 32.0 °F 37% 30.13 in 10.0 mi South 20.7 mph 31.1 mph N/A   Clear
3:52 PM 59.0 °F - 32.0 °F 36% 30.11 in 10.0 mi SSW 16.1 mph - N/A   Clear
4:52 PM 54.0 °F - 32.0 °F 43% 30.12 in 10.0 mi South 13.8 mph - N/A   Clear
5:52 PM 48.0 °F - 30.9 °F 52% 30.13 in 10.0 mi South 11.5 mph - N/A   Clear
6:52 PM 43.0 °F 39.5 °F 30.0 °F 60% 30.15 in 10.0 mi SSW 5.8 mph - N/A   Clear
7:52 PM 39.9 °F 35.1 °F 30.0 °F 68% 30.16 in 10.0 mi South 6.9 mph - N/A   Clear
8:52 PM 41.0 °F 34.7 °F 32.0 °F 70% 30.15 in 10.0 mi WSW 10.4 mph - N/A   Clear
9:52 PM 37.9 °F 32.1 °F 30.0 °F 73% 30.14 in 10.0 mi West 8.1 mph - N/A   Clear
10:52 PM 37.0 °F 33.3 °F 28.9 °F 73% 30.14 in 10.0 mi WSW 4.6 mph - N/A   Clear
11:52 PM 35.1 °F 28.6 °F 28.0 °F 76% 30.13 in 10.0 mi WSW 8.1 mph - N/A   Clear